Content
SEND FEEDBACK

Daily
Averages
Monthly
Summary
France

BIARRITZ, FRANCE


Home > Europe > France
Elevation: 246 feet     Latitude: 43 28N     Longitude: 001 31W

WEATHER
 
SELECT A DAY
Number of Records: 198,497;   Date Range: 7/1/96 - 10/20/14
 
SHARE

PRINT THIS DATA

[ ← Previous Day ]
WEATHER ALMANAC - AUGUST 18, 2013
[ Next Day → ]
[ °C ]   °F
Weather ElementAverageHighLow
Temperature69 °F75.2 °F (12:30 pm)60.8 °F (5:30 am)
Dewpoint62.7 °F66.2 °F (4:30 pm)59 °F (5:00 am)
Humidity81.2 %94 % (2:30 am)65 % (2:30 pm)
Barometer30.07 in30.09 in (12:30 am)30.06 in (1:00 am)
Wind Speed4.6 mph10.4 mph (3:00 pm)
Weather ElementAverage
Visibility6.2 mi
Wind DirectionSSW (216.5 °)

Weather ElementTotal
Precipitation---
Cooling Degree Days3 (Base 65)
Growing Degree Days18 (Base 50)
Averaged from 49 records on August 18, 2013
WEATHER CONDITIONS BREAKOUT
WIND DIRECTION BREAKOUT
WEATHER BY HOUR - AUGUST 18, 2013
[ °C ]   °F
Local TimeTemperatureDewpointHumidityBarometerVisibilityWind DirectionWind SpeedGust SpeedPrecipitationEventsConditions
12:30 AM66.2 °F62.6 °F88 %30.09 in6.2 miSSW (210°)1.2 mph
1:00 AM66.2 °F62.6 °F88 %30.06 in6.2 miSSW (210°)2.3 mph
1:30 AM64.4 °F60.8 °F88 %30.06 in6.2 miSSW (200°)2.3 mph
2:00 AM64.4 °F60.8 °F88 %30.06 in6.2 miSouth (170°)2.3 mph
2:30 AM62.6 °F60.8 °F94 %30.06 in6.2 miSouth (180°)3.5 mph
3:00 AM62.6 °F60.8 °F94 %30.06 in6.2 miSouth (180°)3.5 mph
3:30 AM62.6 °F60.8 °F94 %30.06 in6.2 miVariable2.3 mph
4:00 AM62.6 °F60.8 °F94 %30.06 in6.2 miSSW (210°)2.3 mph
4:30 AM62.6 °F60.8 °F94 %30.06 in6.2 miSouth (180°)3.5 mph
5:00 AM62.6 °F59.0 °F88 %30.06 in6.2 miSSW (200°)2.3 mph
5:30 AM60.8 °F59.0 °F94 %30.06 in6.2 miVariable2.3 mph
6:00 AM62.6 °F60.8 °F94 %30.06 in6.2 miSouth (180°)3.5 mph
6:05 AM60.8 °F59.0 °F94 %30.06 inSouth (170°)3.5 mphClear
6:09 AM60.8 °F59.0 °F94 %30.06 inSouth (170°)3.5 mphClear
6:30 AM60.8 °F59.0 °F94 %30.06 inSSE (160°)3.5 mphClear
7:00 AM60.8 °F59.0 °F94 %30.06 inSSE (160°)3.5 mphClear
7:30 AM60.8 °F59.0 °F94 %30.06 inSSE (160°)2.3 mphClear
8:00 AM60.8 °F59.0 °F94 %30.06 in6.2 miVariable3.5 mphPartly Cloudy
8:30 AM62.6 °F60.8 °F94 %30.06 in6.2 miSSE (160°)1.2 mphPartly Cloudy
9:00 AM66.2 °F62.6 °F88 %30.06 inSSE (160°)1.2 mphClear
9:30 AM68.0 °F62.6 °F83 %30.06 inVariable2.3 mphClear
10:00 AM69.8 °F62.6 °F78 %30.06 in6.2 miSSE (150°)2.3 mphPartly Cloudy
10:30 AM71.6 °F64.4 °F78 %30.09 in6.2 miVariable2.3 mphPartly Cloudy
11:00 AM71.6 °F62.6 °F73 %30.09 in6.2 miWest (280°)3.5 mphPartly Cloudy
11:30 AM73.4 °F64.4 °F73 %30.09 in6.2 miVariable2.3 mphPartly Cloudy
12:00 PM73.4 °F64.4 °F73 %30.09 in6.2 miVariable2.3 mphPartly Cloudy
12:30 PM75.2 °F64.4 °F69 %30.09 in6.2 miNNW (330°)6.9 mphPartly Cloudy
1:00 PM75.2 °F64.4 °F69 %30.09 in6.2 miNW (320°)8.1 mphPartly Cloudy
1:30 PM75.2 °F64.4 °F69 %30.09 in6.2 miNNW (330°)8.1 mphPartly Cloudy
2:00 PM75.2 °F64.4 °F69 %30.06 in6.2 miNW (310°)5.8 mphPartly Cloudy
2:30 PM75.2 °F62.6 °F65 %30.06 in6.2 miNW (310°)6.9 mphPartly Cloudy
3:00 PM75.2 °F64.4 °F69 %30.09 in6.2 miNW (320°)10.4 mphPartly Cloudy
3:30 PM75.2 °F64.4 °F69 %30.06 in6.2 miNNW (330°)6.9 mphPartly Cloudy
4:00 PM75.2 °F64.4 °F69 %30.06 in6.2 miNNW (330°)8.1 mphPartly Cloudy
4:30 PM75.2 °F66.2 °F73 %30.06 in6.2 miNW (310°)8.1 mphScattered Clouds
5:00 PM75.2 °F66.2 °F73 %30.06 in6.2 miNW (320°)6.9 mphScattered Clouds
5:30 PM75.2 °F64.4 °F69 %30.06 in6.2 miNNW (340°)6.9 mphScattered Clouds
6:00 PM75.2 °F64.4 °F69 %30.06 in6.2 miNW (320°)8.1 mphScattered Clouds
6:30 PM75.2 °F64.4 °F69 %30.06 in6.2 miWNW (290°)5.8 mphPartly Cloudy
7:00 PM75.2 °F66.2 °F73 %30.06 in6.2 miWest (270°)4.6 mphPartly Cloudy
7:30 PM75.2 °F64.4 °F69 %30.06 in6.2 miNW (310°)4.6 mph
8:00 PM73.4 °F64.4 °F73 %30.06 in6.2 miNW (310°)5.8 mph
8:30 PM71.6 °F64.4 °F78 %30.06 in6.2 miWNW (300°)6.9 mph
9:00 PM71.6 °F64.4 °F78 %30.06 in6.2 miWNW (300°)6.9 mphMostly Cloudy
9:30 PM69.8 °F64.4 °F83 %30.06 in6.2 miWNW (300°)5.8 mphPartly Cloudy
10:00 PM71.6 °F64.4 °F78 %30.09 in6.2 miWNW (290°)6.9 mphMostly Cloudy
10:30 PM71.6 °F64.4 °F78 %30.09 in6.2 miNW (310°)4.6 mphMostly Cloudy
11:00 PM69.8 °F64.4 °F83 %30.09 in6.2 miWest (280°)5.8 mphScattered Clouds
11:30 PM69.8 °F64.4 °F83 %30.09 in6.2 miWNW (290°)5.8 mphMostly Cloudy
Hourly data recorded from LFBZ, located miles away from Biarritz, France







STORIES FROM OUR PARTNERS